This demonstration page uses our WeatherBlox Daily Observations layout. Learn more.

Left ArrowRight Arrow

Hourly Observations for November 20, 2016

Temp ( °F °C ) Dew Point ( °F °C ) Humidity (%) Winds ( mph kmh ) Pressure ( in mb ) Visibility ( mi km ) Precip ( " mm )
12:53 am 00:53 Clear 44 6.7 19 -7.2 37 37 ESE 10 17 30.29 1026 10 16 0.00 0.00
1:53 am 01:53 Clear 42 5.6 20 -6.7 41 41 ESE 8 13 30.26 1025 10 16 0.00 0.00
2:53 am 02:53 Clear 40 4.4 21 -6.1 47 47 SE 6 9 30.25 1024 10 16 0.00 0.00
3:53 am 03:53 Clear 37 2.8 22 -5.6 54 54 Calm 30.25 1025 10 16 0.00 0.00
4:53 am 04:53 Clear 36 2.2 23 -5 59 59 ESE 7 11 30.24 1024 10 16 0.00 0.00
5:53 am 05:53 Clear 36 2.2 23 -5 59 59 SE 6 9 30.23 1024 10 16 0.00 0.00
6:53 am 06:53 Clear 33 0.6 24 -4.4 70 70 Calm 30.27 1025 10 16 0.00 0.00
7:53 am 07:53 Sunny 33 0.6 25 -3.9 72 72 NNE 3 6 30.28 1025 10 16 0.00 0.00
8:53 am 08:53 Sunny 43 6.1 24 -4.4 47 47 NNE 3 6 30.27 1025 10 16 0.00 0.00
9:53 am 09:53 Sunny 49 9.4 24 -4.4 38 38 SSE 6 9 30.25 1025 10 16 0.00 0.00
10:53 am 10:53 Sunny 55 12.8 25 -3.9 31 31 SSE 6 9 30.24 1024 10 16 0.00 0.00
11:53 am 11:53 Sunny 62 16.7 27 -2.8 26 26 S 6 9 30.19 1022 10 16 0.00 0.00
12:53 pm 12:53 Sunny 67 19.4 29 -1.7 24 24 S 9 15 30.13 1020 10 16 0.00 0.00
1:53 pm 13:53 Sunny 71 21.7 32 0 24 24 S 8 13 30.09 1019 10 16 0.00 0.00
2:53 pm 14:53 Sunny 73 22.8 34 1.1 24 24 S 8 13 30.06 1018 10 16 0.00 0.00
3:53 pm 15:53 Sunny 73 22.8 34 1.1 24 24 SSE 8 13 30.04 1017 10 16 0.00 0.00
4:53 pm 16:53 Sunny 71 21.7 35 1.7 27 27 SSE 8 13 30.03 1017 10 16 0.00 0.00
5:53 pm 17:53 Clear 66 18.9 36 2.2 33 33 SE 8 13 30.03 1017 10 16 0.00 0.00
6:53 pm 18:53 Clear 59 15 37 2.8 44 44 SE 9 15 30.05 1018 10 16 0.00 0.00
7:53 pm 19:53 Clear 60 15.6 33 0.6 36 36 SE 13 20 30.04 1017 10 16 0.00 0.00
8:53 pm 20:53 Clear 56 13.3 33 0.6 42 42 SE 10 17 30.03 1017 10 16 0.00 0.00
9:53 pm 21:53 Clear 53 11.7 32 0 45 45 SE 12 19 30.03 1017 10 16 0.00 0.00
10:53 pm 22:53 Clear 51 10.6 32 0 48 48 SE 8 13 30.02 1017 10 16 0.00 0.00
11:53 pm 23:53 Clear 48 8.9 34 1.1 58 58 SE 7 11 30.01 1016 10 16 0.00 0.00

Powered by AerisWeather